Location: Chester
(43.2628°N, 72.5951°W)
Time: 17:11:04
(UTC-05:00)

ISS - Pass Details

Date: 27 January 2021
Orbit: 417 x 422 km, 51.6° (Epoch: 08 March)

Event Time Altitude Azimuth Distance (km) Brightness Sun altitude
Rises 18:12:52 0° 291° (WNW) 2,373 1.1 -14.1°
Reaches altitude 10° 18:15:23 10° 310° (NW) 1,509 -0.4 -14.5°
Maximum altitude 18:17:55 19° 358° (N) 1,067 -1.8 -15.0°
Enters shadow 18:18:57 17° 23° (NNE) 1,152 -1.9 -15.1°
